EW1011 Weather Reports


Display with metric or nautical units.
time (UTC)temp
F
wind
direction
speed
MPH
gust
MPH
rain 1hr
in
rain 24hr
in
rain mn
in
humidity
%
barometer
mb
20260507054653 58 134 0.0 3.0 0.03 0.18 0.03 88 1009.3
20260507053050 59 202 0.0 3.0 0.02 0.17 0.02 84 1009.2
20260507051546 62 198 0.0 1.0 0.00 0.15 0.00 76 1009.4
20260507050043 63 198 0.0 0.0 0.00 0.15 0.00 73 1009.3
20260507044540 63 148 0.0 2.0 0.00 0.15 0.00 72 1009.2
20260507043039 64 235 0.0 2.0 0.00 0.15 0.00 75 1009.0
20260507041535 65 235 0.0 0.0 0.00 0.15 0.00 76 1008.7
20260507040035 65 235 0.0 0.0 0.00 0.15 0.00 75 1008.2
20260507034533 65 235 0.0 1.0 0.00 0.15 0.15 74 1008.8
20260507033036 65 235 0.0 2.0 0.00 0.15 0.15 72 1008.5
20260507031532 66 235 0.0 3.0 0.00 0.15 0.15 70 1008.4
20260507030033 67 201 0.0 3.0 0.00 0.15 0.15 73 1008.3
20260507024534 68 197 0.0 1.0 0.00 0.15 0.15 78 1008.2
20260507023031 68 197 0.0 0.0 0.00 0.15 0.15 81 1007.9
20260507021529 68 197 0.0 0.0 0.00 0.15 0.15 80 1007.8
20260507020033 68 197 0.0 0.0 0.00 0.15 0.15 81 1007.6
20260507014529 68 197 0.0 0.0 0.00 0.15 0.15 81 1007.8
20260507013035 68 197 0.0 0.0 0.00 0.15 0.15 79 1007.9
20260507011537 68 197 0.0 0.0 0.00 0.15 0.15 79 1008.2
20260507010029 68 197 0.0 0.0 0.00 0.15 0.15 78 1007.8
20260507004526 68 197 0.0 0.0 0.00 0.15 0.15 78 1007.7
20260507003026 69 197 0.0 1.0 0.00 0.15 0.15 78 1007.6
20260507001529 69 198 0.0 1.0 0.00 0.15 0.15 77 1007.7
20260507000025 69 198 0.0 1.0 0.00 0.15 0.15 76 1007.3
20260506234530 69 198 0.0 0.0 0.00 0.15 0.15 76 1007.2
20260506233026 70 198 0.0 0.0 0.00 0.15 0.15 76 1007.1
20260506231525 70 113 0.0 1.0 0.00 0.15 0.15 74 1007.1
20260506230023 70 113 0.0 2.0 0.00 0.15 0.15 74 1006.7
20260506224527 70 234 0.0 2.0 0.00 0.15 0.15 73 1006.9
20260506223022 71 180 0.0 5.0 0.00 0.15 0.15 73 1006.9
20260506221522 71 173 0.0 4.0 0.00 0.15 0.15 72 1007.0
20260506220022 71 228 0.0 4.0 0.00 0.15 0.15 72 1007.0
20260506214520 71 146 0.0 2.0 0.00 0.15 0.15 71 1006.7
20260506213022 71 98 0.0 6.0 0.00 0.15 0.15 71 1006.7
20260506211519 71 91 0.0 3.0 0.00 0.15 0.15 72 1006.7
20260506210023 71 214 0.0 3.0 0.00 0.15 0.15 71 1006.3
20260506204518 72 184 0.0 5.0 0.00 0.15 0.15 70 1006.5
20260506203017 72 241 0.0 3.0 0.00 0.15 0.15 69 1006.2
20260506201521 72 179 0.0 6.0 0.00 0.15 0.15 69 1006.2
20260506200019 72 244 2.0 6.0 0.00 0.15 0.15 68 1006.2
20260506194517 72 238 1.0 5.0 0.00 0.15 0.15 69 1006.2
20260506193015 72 231 1.0 9.0 0.00 0.15 0.15 70 1006.2
20260506191517 72 212 1.0 7.0 0.00 0.15 0.15 70 1006.5
20260506190016 70 251 1.0 6.0 0.00 0.15 0.15 73 1006.7
20260506184513 70 265 0.0 10.0 0.00 0.15 0.15 74 1006.9
20260506183014 69 205 1.0 9.0 0.00 0.15 0.15 74 1007.0
20260506181512 69 230 0.0 6.0 0.00 0.15 0.15 76 1007.1
20260506180012 69 214 0.0 7.0 0.00 0.15 0.15 77 1007.2
20260506174515 67 17 1.0 12.0 0.00 0.15 0.15 78 1007.2
20260506173011 67 154 1.0 9.0 0.00 0.15 0.15 80 1007.2
20260506171515 67 83 0.0 7.0 0.00 0.15 0.15 83 1007.2
20260506170009 65 86 0.0 7.0 0.00 0.15 0.15 86 1007.3
20260506164513 65 106 0.0 9.0 0.01 0.15 0.15 87 1007.7
20260506163010 64 148 0.0 6.0 0.01 0.15 0.15 87 1007.6
20260506161508 64 208 0.0 4.0 0.01 0.15 0.15 89 1007.6
20260506160009 63 244 0.0 8.0 0.03 0.15 0.15 90 1008.1
20260506154518 63 169 0.0 4.0 0.06 0.14 0.14 90 1008.1
20260506153001 62 156 0.0 4.0 0.10 0.14 0.14 90 1008.2
20260506151559 62 102 0.0 7.0 0.11 0.14 0.14 90 1008.7
20260506150057 62 146 0.0 3.0 0.11 0.12 0.12 89 1008.8
20260506144554 62 164 0.0 4.0 0.08 0.08 0.08 86 1008.9
20260506143053 63 203 0.0 3.0 0.04 0.04 0.04 86 1008.8
20260506141550 63 261 0.0 2.0 0.03 0.03 0.03 84 1008.8
20260506140046 64 308 0.0 2.0 0.01 0.01 0.01 79 1009.1
20260506134542 66 281 0.0 4.0 0.00 0.00 0.00 75 1009.3
20260506133046 66 201 0.0 4.0 0.00 0.00 0.00 73 1009.1
20260506131540 66 154 0.0 5.0 0.00 0.00 0.00 72 1008.8
20260506130041 67 57 0.0 6.0 0.00 0.00 0.00 72 1008.6
20260506124543 66 195 0.0 2.0 0.00 0.00 0.00 72 1008.7
20260506123039 66 177 0.0 4.0 0.00 0.00 0.00 72 1009.0
20260506121546 67 277 0.0 3.0 0.00 0.00 0.00 71 1009.1
20260506120040 67 266 0.0 4.0 0.00 0.00 0.00 70 1008.9
20260506114536 67 57 0.0 5.0 0.00 0.00 0.00 69 1008.7
20260506113036 67 249 0.0 8.0 0.00 0.00 0.00 70 1008.6
20260506111536 66 47 0.0 7.0 0.00 0.00 0.00 70 1008.4
20260506110040 66 81 1.0 4.0 0.00 0.00 0.00 71 1008.2
20260506104535 66 91 0.0 4.0 0.00 0.00 0.00 71 1008.3
20260506103034 66 100 1.0 5.0 0.00 0.00 0.00 71 1008.2
20260506101533 65 125 0.0 2.0 0.00 0.00 0.00 72 1008.2
20260506100037 66 174 0.0 4.0 0.00 0.00 0.00 71 1008.2
20260506094530 66 12 0.0 4.0 0.00 0.00 0.00 70 1008.3
20260506093029 66 191 0.0 5.0 0.00 0.00 0.00 70 1008.2
20260506091529 66 56 1.0 9.0 0.00 0.00 0.00 69 1008.3
20260506090027 67 94 0.0 5.0 0.00 0.00 0.00 68 1008.5
20260506084534 67 248 0.0 5.0 0.00 0.00 0.00 67 1008.4
20260506083030 68 213 0.0 4.0 0.00 0.00 0.00 67 1008.3
20260506081522 68 107 0.0 6.0 0.00 0.00 0.00 66 1008.2
20260506073018 69 253 0.0 8.0 0.00 0.00 0.00 63 1008.7
20260506071516 70 43 0.0 4.0 0.00 0.00 0.00 61 1008.7
20260506061509 71 88 0.0 7.0 0.00 0.00 0.00 57 1008.7